Regional Weather Roundup
Issued by NWS

Home | Current Version | Previous Version | Text Only | Print | Product List | Glossary On
Versions: 1 2 3 4 5 6 7 8 9 10 11 12 13 14 15 16 17 18 19 20 21 22 23 24 25 26 27 28 29 30 31 32 33 34 35 36 37 38 39 40 41 42 43 44 45 46 47 48 49 50
000
ASUS43 KDTX 250810
RWRMI
MICHIGAN HOURLY REGIONAL WEATHER ROUNDUP
NATIONAL WEATHER SERVICE DETROIT/PONTIAC MI
300 AM EST SUN JAN 25 2015

NOTE: "FAIR" INDICATES FEW OR NO CLOUDS BELOW 12,000 FEET WITH NO
SIGNIFICANT WEATHER AND/OR OBSTRUCTION TO VISIBILITY.

MIZ047>049-052>055-059>063-066>070-074>076-081>083-250900-
SOUTHEAST LOWER MICHIGAN

CITY           SKY/WX    TMP DP  RH WIND       PRES   REMARKS
ADRIAN         CLOUDY    33  31  92 CALM      29.70S FOG
ALMA           CLOUDY    30  28  93 N10       29.74R
ANN ARBOR      CLOUDY    34  33  96 CALM      29.70R FOG
BAD AXE        PTCLDY    22  15  75 N12       29.76R
DETROIT CITY   CLOUDY    36  31  82 W3        29.71R
DETROIT        CLOUDY    34  33  96 CALM      29.72R FOG
FLINT          CLOUDY    31  25  78 N13       29.73R
GROSSE ILE     DRIZZLE   36  32  87 CALM      29.70R
HILLSDALE      CLOUDY    35  34  95 CALM      29.67S FOG
HOWELL         CLOUDY    33  32  96 N7        29.69R FOG

CITY           SKY/WX    TMP DP  RH WIND       PRES   REMARKS
JACKSON        CLOUDY    34  32  92 N3        29.68S FOG
LAMBERTVILLE   CLOUDY    36  32  87 CALM      29.70S
LANSING        CLOUDY    32  28  85 N10       29.72R
LAPEER         NOT AVBL
MASON          LGT SNOW  32  31  96 CALM      29.70R
MONROE         CLOUDY    34  32  93 CALM      29.70R FOG
MT. CLEMENS    CLOUDY    33  28  80 N15       29.70R
PONTIAC        MIX PCPN  31  27  85 NE12        N/A
PORT HOPE        N/A     24  15  68 N10       29.76R
PORT HURON     CLOUDY    28  21  74 N8        29.74R
TRI CITIES     CLOUDY    27  18  69 N13       29.77R
YPSILANTI      CLOUDY    37  32  82 W3        29.71R HAZE
$$
MIZ043>046-050>051-056>058-064>065-071>073-077>080-250900-
SOUTHWEST LOWER MICHIGAN

CITY           SKY/WX    TMP DP  RH WIND       PRES   REMARKS
BATTLE CREEK   CLOUDY    36  31  82 CALM      29.68R
BENTON HARBOR  CLOUDY    33  33 100 CALM      29.70R FOG
BIG RAPIDS     CLOUDY    24  20  82 N8        29.74R
COLDWATER      CLOUDY    34  33  95 CALM      29.68R
HOLLAND        CLOUDY    37  33  85 NE5       29.70R
GRAND RAPIDS   CLOUDY    32  29  88 NE12      29.70R
KALAMAZOO      CLOUDY    34  30  85 CALM      29.69R
MARSHALL       CLOUDY    32  31  94 CALM      29.68R
MUSKEGON       CLOUDY    33  29  85 NE8       29.73R
$$
MIZ016>042-250900-
NORTHERN LOWER MICHIGAN

CITY           SKY/WX    TMP DP  RH WIND       PRES   REMARKS
ALPENA         PTCLDY    14   7  73 N13       29.82R WCI   0
BEAVER ISLAND  CLEAR     11   4  75 CALM      29.88R
BELLAIRE       CLEAR     15   9  75 N3        29.84R
CADILLAC       CLOUDY    16  11  82 N6        29.74R
CHARLEVOIX     CLEAR     13   5  71 N12G20    29.88R WCI  -1
FRANKFORT      CLOUDY    22  15  75 NE6       29.82R
GAYLORD        CLEAR      9   6  88 VRB5      29.76R
GRAYLING       PTCLDY    10   8  88 NW3       29.78R
HARBOR SPRINGS CLEAR     10   2  72 CALM      29.84R
HOUGHTON LAKE  CLEAR     16   9  74 N6        29.76R
MANISTEE       MOCLDY    21  12  68 NE10G17   29.80R
OSCODA         CLEAR     18  10  73 N9        29.78R
PELLSTON       CLEAR      7   1  76 N13       29.86R WCI  -9
TRAVERSE CITY  CLOUDY    20  12  71 NE10      29.82R
$$
MIZ007>008-015-250900-
EASTERN UPPER MICHIGAN

CITY           SKY/WX    TMP DP  RH WIND       PRES   REMARKS
KINROSS        MOCLDY     0  -2  92 NW6       29.87R
MACKINAC ISLAN PTCLDY     7   1  75 N12       29.87R WCI  -8
NEWBERRY       CLEAR      3   3 100 VRB5      29.87R
S. S. MARIE    MOCLDY     2  -7  66 N6        29.87R
$$
MIZ004>006-011>014-085-250900-
CENTRAL UPPER MICHIGAN

CITY           SKY/WX    TMP DP  RH WIND       PRES   REMARKS
MANISTIQUE     PTCLDY    12   6  77 N6        29.89R
ESCANABA       CLOUDY    19   9  63 N8        29.88
MENOMINEE      CLOUDY    21  12  68 NE16      29.86R
SAWYER-GWINN   FLURRIES  16  10  74 NE16      29.84R
$$
MIZ001>003-009>011-084-250900-
WESTERN UPPER MICHIGAN

CITY           SKY/WX    TMP DP  RH WIND       PRES   REMARKS
IRON MOUNTAIN  CLOUDY    16   9  74 CALM      29.83R
HOUGHTON       CLOUDY    14   7  73 NE10      29.90R
COPPER HARBOR    N/A     17   8  67 E12G22    29.95R
IRONWOOD       CLOUDY    12  10  92 E5        29.85R
$$

ABBREVIATIONS USED IN REMARKS
   TC - TEMPERATURE IN CELSIUS
  WCI - WIND CHILL INDEX
   HX - HEAT INDEX
  VSB - VISIBILITY




USA.gov is the U.S. government's official web portal to all federal, state and local government web resources and services.